Weather History for New York JFK, NY

Change the Weather History Date:

Saturday, February 2, 2013

  Actual Average Record
Temperature  
Mean Temperature 26 °F 33 °F  
Max Temperature 31 °F 40 °F 56 °F (1973)
Min Temperature 20 °F 27 °F -1 °F (1961)
Degree Days  
Heating Degree Days 39 32  
Month to date heating degree days 75 64  
Since 1 July heating degree days 2545 2734  
Cooling Degree Days 0 0  
Month to date cooling degree days 0 0  
Year to date cooling degree days 0 0  
Moisture  
Dew Point 9 °F    
Average Humidity 56    
Maximum Humidity 81    
Minimum Humidity 31    
Precipitation  
Precipitation 0.02 in 0.09 in 1.22 in (1973)
Month to date precipitation 0.02 0.18  
Year to date precipitation 2.41 3.34  
Snow  
Snow 0.30 in 0.30 in 3.30 in (1985)
Month to date snowfall 0.3 0.6  
Since 1 July snowfall 6.1 11.8  
Snow Depth 0.00 in    
Sea Level Pressure  
Sea Level Pressure 30.21 in    
Wind  
Wind Speed 13 mph (WSW)    
Max Wind Speed 23 mph    
Max Gust Speed 26 mph    
Visibility 9 miles    
Events Snow    
T = Trace of Precipitation, MM = Missing Value Source: NWS Daily Summary

Daily Weather History Graph

Daily Weather History Graph

Search for Another Location

Airport:

Trip Planner

Search our weather history database for the weather conditions in past years. The results will help you decide how hot, cold, wet, or windy it might be!

Date:

Astronomy

Feb. 02, 2013 Rise Set
Actual Time 7:03 AM EST 5:14 PM EST
Civil Twilight 6:34 AM EST 5:43 PM EST
Nautical Twilight 6:02 AM EST 6:15 PM EST
Astronomical Twilight 5:30 AM EST 6:48 PM EST
Moon No Moon Rise 10:10 AM EST (2/2)
Length of Visible Light 11h 08m
Length of Day
10h 10m
Waning Gibbous, 60% of the Moon is Illuminated
Feb 2
Waning Gibbous
Feb 3
Last Quarter
Feb 10
New
Feb 17
First Quarter
Feb 25
Full

Hourly Weather History & Observations

Time (EST) Temp. Windchill Dew Point Humidity Pressure Visibility Wind Dir Wind Speed Gust Speed Precip Events Conditions
12:51 AM 24.1 °F 10.6 °F 7.0 °F 48% 30.25 in 10.0 mi West 17.3 mph 21.9 mph N/A   Partly Cloudy
1:51 AM 23.0 °F 8.7 °F 6.1 °F 48% 30.27 in 10.0 mi West 18.4 mph 26.5 mph N/A   Scattered Clouds
2:51 AM 21.9 °F 9.2 °F 6.1 °F 51% 30.29 in 10.0 mi West 13.8 mph - N/A   Scattered Clouds
3:51 AM 21.9 °F 8.2 °F 6.1 °F 51% 30.29 in 10.0 mi West 16.1 mph 21.9 mph N/A   Clear
4:51 AM 21.0 °F 7.6 °F 5.0 °F 50% 30.29 in 10.0 mi West 15.0 mph 20.7 mph N/A   Clear
5:51 AM 19.9 °F 7.9 °F 5.0 °F 52% 30.29 in 10.0 mi WNW 11.5 mph - N/A   Clear
6:51 AM 19.9 °F 7.9 °F 5.0 °F 52% 30.30 in 10.0 mi WNW 11.5 mph - N/A   Partly Cloudy
7:51 AM 21.0 °F 9.9 °F 5.0 °F 50% 30.32 in 10.0 mi West 10.4 mph - N/A   Scattered Clouds
8:51 AM 21.9 °F 10.4 °F 6.1 °F 51% 30.32 in 10.0 mi West 11.5 mph - N/A   Scattered Clouds
9:51 AM 24.1 °F 15.2 °F 7.0 °F 48% 30.30 in 10.0 mi WSW 8.1 mph - N/A   Scattered Clouds
10:51 AM 25.0 °F 15.5 °F 8.1 °F 49% 30.28 in 10.0 mi WSW 9.2 mph - N/A   Scattered Clouds
11:51 AM 27.0 °F 16.1 °F 9.0 °F 47% 30.25 in 10.0 mi WSW 12.7 mph - N/A   Mostly Cloudy
12:51 PM 28.0 °F 17.0 °F 7.0 °F 41% 30.22 in 10.0 mi SSW 13.8 mph 18.4 mph N/A   Mostly Cloudy
1:51 PM 30.9 °F 19.4 °F 3.9 °F 32% 30.18 in 10.0 mi SW 17.3 mph 20.7 mph N/A   Mostly Cloudy
2:51 PM 28.9 °F 17.7 °F 3.9 °F 35% 30.16 in 10.0 mi WSW 15.0 mph 20.7 mph N/A   Mostly Cloudy
3:51 PM 28.9 °F 16.9 °F 5.0 °F 36% 30.14 in 10.0 mi WSW 17.3 mph - N/A   Overcast
4:51 PM 28.9 °F 19.2 °F 6.1 °F 38% 30.12 in 10.0 mi WSW 11.5 mph - N/A   Overcast
5:51 PM 28.0 °F 17.0 °F 7.0 °F 41% 30.12 in 10.0 mi SW 13.8 mph - N/A   Overcast
6:51 PM 28.9 °F 16.9 °F 7.0 °F 40% 30.12 in 10.0 mi SW 17.3 mph - N/A   Overcast
7:51 PM 28.0 °F 16.5 °F 10.0 °F 47% 30.11 in 10.0 mi SW 15.0 mph - 0.00 in Snow Light Snow
8:51 PM 27.0 °F 14.7 °F 14.0 °F 58% 30.11 in 10.0 mi WSW 16.1 mph - 0.00 in Snow Light Snow
9:51 PM 26.1 °F 15.6 °F 16.0 °F 66% 30.12 in 5.0 mi WSW 11.5 mph - 0.00 in Snow Light Snow
10:41 PM 24.8 °F 14.0 °F 19.4 °F 80% 30.11 in 2.0 mi WSW 11.5 mph - 0.00 in Snow Light Snow
10:51 PM 25.0 °F 15.5 °F 19.9 °F 81% 30.11 in 2.0 mi WSW 9.2 mph - 0.01 in Snow Light Snow
11:22 PM 24.8 °F 16.9 °F 21.2 °F 86% 30.09 in 1.8 mi West 6.9 mph - 0.00 in Snow Light Snow
11:51 PM 25.0 °F 20.7 °F 21.9 °F 88% 30.08 in 2.0 mi West 3.5 mph - 0.01 in Snow Light Snow